User: anonymous   Login
Location: Earls Croome
(52.0667°N, 2.2000°W)
Time: 22:49:53
(UTC+00:00)
Language:

COSMOS 2455 - Orbit

View from above orbital plane
View from above orbital plane
View from above satellite
View from above satellite

Ground track
Ground track

The orbit data is extracted from the following two-line orbital elements,

1 36095U 09063A   20027.77706276 -.00000079  00000-0 -25190-5 0  9994
2 36095  67.1475 163.5245 0003053 270.8509  89.2226 13.96762351519561
Epoch (UTC): 27 January 2020 18:38:58
Eccentricity: 0.0003053
inclination: 67.1475°
perigee height: 903 km
apogee height: 907 km
right ascension of ascending node: 163.5245°
argument of perigee: 270.8509°
revolutions per day: 13.96762351
mean anomaly at epoch: 89.2226°
orbit number at epoch: 51956

The dashed part of the orbit path shows where the satellite is in the earth's shadow,  

DLR